SCP
0 0 0 0 -0 0 0 -0 -0 -0 -0 0 -0 0 0 0 0 0 0 0 0 0 0 0 0 -0 -0 -0 -0 -0 -0 -0 0 0 0 0 0 0 0 0 0 0 0 0
-0 -0 -0 -0 -0 0 -0 -0 -0 -0 -0 -0 -0 -0 -0 0 0 0 0 0 0 0 0 0 0 -0 -0 -0 -0 -0 -0 -0 0 0 0 0 0 0 0 0 0 0 0 -0
-0 -0 -0 0 -0 -0 0 -0 -0 -0 0 0 -0 -0 -0 0 0 0 0 0 0 0 0 0 -0 -0 -0 -0 -0 -0 -0 -0 -0 -0 -0 -0 -0 -0 0 0 0 0 -0 -0
-0 -0 0 -0 -0 -0 -0 -0 -0 -0 0 0 0 -0 -0 0 0 0 0 0 0 0 0 0 -0 -0 0 -0 -0 -0 -0 -0 -0 -0 -0 -0 -0 -0 -0 0 -0 0 -0 -0
-0 -0 -0 -0 -0 0 -0 -0 -0 -0 0 0 0 0 0 0 0 1 1 0 0 0 0 0 -0 -0 -0 -0 -0 0 -0 -0 -0 -0 -0 -0 -0 0 0 -0 0 0 0 -0
0 0 0 0 0 0 -0 0 -0 0 0 0 0 0 0 0 0 1 0 0 0 0 0 0 0 -0 -0 0 0 0 0 -0 -0 -0 -0 0 0 0 -0 0 0 0 0 -0
0 0 0 0 -0 -0 -0 0 0 0 0 0 0 0 0 0 0 0 0 0 0 0 0 0 0 -0 0 0 0 -0 -0 -0 -0 -0 -0 0 0 0 0 0 0 0 0 0
0 0 0 0 -0 -0 0 -0 0 0 0 0 0 0 0 0 0 0 0 0 0 0 0 0 0 0 -0 0 0 0 0 -0 -0 -0 0 0 0 0 0 0 0 0 0 0
0 0 0 -0 0 -0 -0 -0 0 0 0 0 0 0 0 0 0 0 0 0 0 0 0 -0 -0 -0 -0 -0 0 0 -0 0 0 0 0 0 0 -0 0 0 0 0 0 0
0 0 -0 -0 -0 -0 0 0 0 0 0 0 0 0 0 0 0 0 0 0 0 0 -0 -0 -0 -0 -0 -0 0 0 0 0 -0 0 0 -0 0 0 0 -0 -0 0 0 0
0 0 0 0 0 -0 0 0 0 0 0 0 0 0 0 0 0 0 0 0 0 -0 -0 -0 -0 -0 -0 -0 0 0 0 -0 -0 0 0 0 0 0 0 0 0 0 0 0
-0 -0 -0 0 -0 0 0 0 0 0 0 0 0 0 0 0 0 0 0 0 0 -0 -0 -0 0 0 -0 -0 0 0 -0 -0 0 0 0 0 0 0 -0 0 0 0 0 0
-0 0 -0 0 0 0 0 0 0 0 0 0 0 0 0 0 0 0 0 0 0 0 0 -0 0 0 0 0 0 0 -0 -0 0 0 0 0 0 0 0 0 0 0 0 0
-0 -0 -0 0 0 0 0 0 0 0 0 0 0 0 0 0 0 0 0 0 0 0 0 0 0 -0 -0 -0 0 0 -0 0 0 0 0 0 0 0 0 0 0 0 0 0
-0 -0 0 0 0 0 0 0 0 0 0 0 0 0 0 0 0 0 0 0 0 0 0 0 0 0 0 -0 0 -0 -0 0 0 0 0 0 0 0 0 0 0 0 0 0
0 -0 0 -0 -0 0 0 0 0 0 0 0 0 0 0 0 0 0 0 0 0 0 0 0 0 0 0 0 0 -0 -0 0 0 0 0 0 0 0 0 0 0 0 0 0
0 0 -0 0 -0 0 0 0 0 0 0 0 0 0 0 0 0 0 0 0 0 0 0 0 0 0 0 0 0 0 0 0 0 0 0 0 0 0 0 0 0 0 0 0
0 0 -0 -0 0 -0 -0 -0 -0 0 0 0 0 0 0 0 0 0 0 0 0 0 0 0 0 0 0 0 0 0 0 0 0 0 0 0 0 0 0 0 0 0 0 0
-0 0 -0 -0 0 0 0 -0 0 0 0 0 0 0 0 0 0 0 0 0 0 0 0 0 0 0 0 0 0 0 0 0 0 0 0 0 0 0 0 0 0 0 0 0
-0 -0 -0 -0 0 0 0 -0 0 0 0 0 0 0 0 0 0 0 0 0 0 0 0 0 0 0 0 0 0 0 0 0 0 0 0 0 0 0 0 0 0 0 0 0
-0 -0 -0 0 0 0 0 0 0 0 0 0 0 0 0 0 0 0 0 0 0 0 0 0 0 0 0 0 0 0 0 0 0 0 0 0 0 0 0 0 0 0 0 0
0 -0 -0 0 0 0 0 0 0 0 0 0 0 0 0 0 0 0 0 0 0 0 0 0 0 0 0 0 0 0 0 0 0 0 0 0 0 0 0 0 0 0 0 0
-0 0 -0 0 0 0 0 0 0 0 0 0 0 0 0 0 0 0 0 0 0 0 0 0 0 0 0 0 0 0 0 0 0 0 0 0 0 0 0 0 0 0 0 0
-0 -0 0 0 0 0 0 0 0 0 0 0 0 0 0 0 0 0 0 0 0 0 0 0 0 0 0 0 0 0 0 0 0 0 0 0 0 0 0 0 0 0 0 0
-0 -0 -0 -0 -0 -0 -0 -0 0 0 0 0 0 0 0 0 0 0 0 0 0 0 0 0 0 0 0 0 0 0 0 0 0 0 0 0 0 0 0 0 0 0 0 0
-0 -0 0 -0 -0 -0 -0 -0 -0 0 0 0 0 0 0 0 0 0 0 0 0 0 0 0 0 0 0 0 0 0 0 0 0 0 0 0 0 0 0 0 0 0 0 0
-0 -0 -0 0 0 -0 -0 -0 -0 -0 0 0 0 0 0 0 0 0 0 0 0 0 0 0 0 0 0 0 0 0 0 0 0 0 0 0 0 0 0 0 0 0 0 0
Wind_Speed_500mb
27 30 29 33 39 34 27 27 23 27 48 45 34 38 45 53 48 48 27 13 20 24 27 33 39 48 52 54 49 44 41 41 37 31 26 23 24 32 34 34 24 18 14 5
24 31 34 40 40 40 38 37 36 40 57 39 53 58 48 59 52 48 33 20 26 29 31 38 43 44 50 50 47 45 45 39 32 27 23 23 27 32 33 30 21 17 11 5
22 16 18 26 43 47 39 35 32 40 49 45 40 36 39 46 44 52 38 22 30 36 36 39 44 44 44 47 47 46 39 32 27 27 23 26 23 36 37 26 19 14 8 1
7 4 14 12 2 12 27 32 34 40 47 43 44 50 53 54 60 58 28 24 36 37 39 42 44 45 43 45 46 39 29 23 20 22 24 31 34 39 32 23 17 13 8 2
7 13 23 31 5 12 7 20 19 35 45 33 43 44 59 52 52 37 23 27 38 38 42 44 46 46 48 44 37 30 24 20 20 20 29 33 35 31 26 21 19 15 8 3
9 10 9 7 11 14 15 20 26 36 30 33 34 19 25 35 21 14 21 30 39 41 43 46 47 52 48 42 35 28 21 19 21 20 27 29 31 29 25 21 19 14 9 4
19 10 14 5 17 16 9 3 30 15 13 16 18 26 32 30 14 14 22 33 38 44 45 47 51 51 46 40 36 24 18 23 23 22 28 25 26 28 20 16 15 15 11 7
10 11 13 17 20 10 12 46 33 40 20 25 36 48 52 43 18 18 26 36 42 44 46 49 50 49 44 45 31 25 19 24 23 25 29 25 20 19 15 13 14 16 15 11
6 6 13 32 32 66 70 56 63 41 25 28 33 38 33 31 38 19 19 38 42 46 49 50 51 49 47 42 34 27 24 24 28 28 27 21 15 14 10 12 14 16 17 15
6 6 23 35 50 55 10 19 2 12 8 2 6 9 8 12 24 38 19 37 44 49 53 54 51 51 45 39 32 30 27 28 29 27 24 19 15 9 8 9 11 13 17 17
9 15 26 15 46 49 40 46 36 26 31 27 13 9 3 6 19 31 16 37 41 46 53 54 52 48 45 39 34 32 30 27 27 24 20 16 15 12 15 18 14 11 12 16
5 28 15 21 40 47 42 47 43 37 38 34 23 13 10 11 11 9 9 10 28 43 48 51 55 49 46 40 35 36 35 31 26 22 18 14 14 20 22 22 19 17 16 17
12 23 16 30 30 33 35 36 38 47 35 46 41 22 16 20 24 16 9 18 31 32 38 47 53 49 48 43 39 39 34 29 29 24 19 17 19 24 21 21 18 17 16 19
21 12 17 26 26 31 33 34 29 36 47 42 34 32 27 26 26 22 13 14 24 22 31 43 50 53 49 47 41 43 34 26 27 25 23 18 17 23 18 18 13 15 16 17
18 17 16 23 32 33 31 28 28 39 31 44 42 40 36 38 38 26 23 26 28 32 26 29 43 52 55 50 44 43 37 30 30 26 27 22 17 20 20 18 10 13 18 18
13 20 23 32 34 37 31 29 30 37 33 31 37 37 39 48 48 44 37 33 30 27 26 33 39 47 55 54 47 43 38 30 26 26 27 27 24 20 21 19 12 13 17 14
17 22 21 27 27 29 32 27 25 28 25 27 28 27 35 45 53 57 54 46 42 33 25 22 23 33 46 49 48 43 38 33 30 27 25 29 29 27 22 20 17 13 10 8
18 15 18 26 25 29 30 30 22 21 26 23 22 27 36 45 50 46 47 51 46 41 31 22 17 21 32 39 43 42 39 35 32 29 27 25 26 29 27 23 19 17 15 13
14 15 19 28 33 31 32 32 29 20 19 20 22 30 36 40 40 38 40 41 41 43 37 30 22 22 22 28 31 35 32 33 28 28 26 25 23 21 23 25 21 20 20 18
12 14 17 26 36 42 42 41 35 25 21 21 21 24 33 38 36 33 34 39 41 38 31 26 27 24 22 30 34 22 25 30 32 29 25 21 16 14 13 17 19 14 17 22
14 11 14 23 31 37 43 39 32 30 26 23 20 25 29 28 23 25 28 36 37 32 32 27 24 27 24 18 21 33 30 25 28 28 25 22 20 17 14 14 14 17 18 19
18 11 10 15 24 29 34 37 42 42 43 30 23 22 20 21 19 22 25 30 28 26 30 33 33 25 25 22 25 29 32 27 27 28 28 26 22 20 17 16 16 17 19 20
21 14 9 9 18 21 26 35 41 45 52 50 48 42 37 32 27 27 30 30 29 25 28 32 30 24 22 29 34 36 39 40 47 40 26 24 22 21 19 16 13 12 10 9
20 17 14 10 14 16 22 28 35 43 49 53 53 47 36 44 45 41 37 31 31 32 35 32 29 28 31 38 39 40 39 42 43 53 55 44 39 38 37 32 31 30 28 25
21 20 17 19 13 14 17 21 27 33 40 44 46 48 49 49 51 44 41 38 34 35 37 36 34 36 41 45 48 50 48 46 46 43 45 48 47 46 37 34 32 31 30 28
28 23 19 18 15 16 17 19 23 25 28 36 40 41 43 45 50 52 54 56 55 54 50 43 42 45 48 49 50 49 49 49 47 45 43 43 44 45 40 35 31 30 30 29
30 31 31 26 20 17 18 17 18 24 24 27 33 36 39 42 47 48 50 54 57 62 64 63 62 62 63 63 63 64 64 60 58 58 55 54 53 52 49 47 45 44 43 42
Wind_Direction_500mb
260 274 276 275 275 272 259 250 254 261 257 269 288 307 316 315 322 327 322 243 193 178 157 154 151 149 148 147 146 142 138 138 139 137 136 144 149 154 155 154 148 147 154 107
250 258 264 270 267 263 260 258 253 253 263 273 284 288 296 301 306 313 319 235 197 184 168 161 158 155 151 149 148 143 141 145 149 147 145 153 157 162 157 154 149 141 140 112
256 268 280 273 251 246 254 251 243 244 254 260 269 277 284 294 300 301 302 228 193 182 176 167 161 159 157 154 153 153 154 160 165 170 161 161 165 164 157 149 156 167 151 111
276 309 253 275 215 281 265 268 263 237 245 250 253 267 283 287 285 288 274 211 192 180 172 168 163 162 161 161 159 161 165 174 179 170 165 158 150 154 154 154 165 167 188 270
235 226 279 285 39 335 353 286 267 224 238 244 258 281 285 278 275 262 240 198 189 177 169 167 167 167 166 169 166 167 172 180 171 158 160 165 163 167 165 166 176 186 201 236
213 246 262 39 120 12 327 273 226 226 238 242 251 258 271 294 258 241 191 185 176 168 166 169 169 171 173 177 174 177 179 174 162 151 156 162 171 174 170 172 187 198 199 235
231 261 271 66 342 326 248 15 325 309 263 242 235 238 265 310 270 185 186 176 171 166 165 169 171 175 178 180 183 181 180 169 159 151 155 160 165 173 175 189 199 203 207 212
218 236 267 22 330 237 330 311 303 300 269 252 254 262 263 266 230 176 179 168 170 162 166 172 173 175 179 182 181 182 176 159 155 153 163 166 170 180 192 205 210 209 205 199
253 294 297 292 256 263 262 265 280 285 271 261 256 261 262 239 211 179 170 170 166 163 165 170 174 178 181 183 185 188 164 148 155 159 169 172 168 170 187 203 198 199 193 186
301 264 289 301 336 343 51 207 11 53 48 335 265 273 274 219 197 199 185 172 163 173 170 168 172 176 177 183 184 179 163 154 159 168 177 181 182 171 159 172 169 182 187 180
253 278 319 310 347 356 18 50 37 49 45 33 26 8 337 138 147 180 187 161 168 181 182 177 178 180 183 190 189 183 169 160 162 172 182 184 180 159 137 130 124 124 147 169
330 307 307 327 344 360 12 35 26 40 40 38 39 42 44 68 116 139 106 120 186 196 188 188 189 186 187 194 188 185 180 172 172 179 185 183 167 149 137 127 117 111 123 141
284 317 351 354 358 358 7 19 20 36 30 41 37 53 62 77 95 102 162 177 189 200 190 198 192 188 187 187 187 186 187 184 187 191 191 185 168 158 144 134 124 120 118 135
11 11 20 12 355 355 359 16 12 28 48 35 40 60 76 85 105 104 110 132 164 182 194 187 190 191 181 185 183 183 189 192 183 199 198 187 174 168 156 153 140 143 128 138
34 52 42 14 16 13 16 14 30 38 25 34 39 52 67 79 90 91 88 103 137 147 123 150 176 185 183 182 183 187 186 195 193 192 202 187 179 172 173 167 150 158 157 143
50 38 33 23 16 21 25 19 31 42 34 28 42 45 61 78 85 89 93 98 120 124 135 152 167 178 182 184 186 190 192 200 203 207 215 199 191 184 179 180 166 149 163 158
43 22 31 27 24 27 31 34 33 45 37 42 47 60 72 78 81 75 77 83 94 107 128 134 158 167 176 183 190 194 193 196 208 205 211 214 205 199 192 194 192 177 171 164
57 43 55 37 33 33 32 41 40 51 55 43 59 73 79 80 78 78 80 84 84 82 82 90 125 151 173 181 183 198 203 209 208 213 215 217 217 214 212 206 202 200 197 197
47 72 52 39 33 33 36 40 47 59 66 65 79 79 80 86 85 77 81 87 88 89 83 81 93 116 148 175 189 185 196 204 206 217 223 225 226 224 223 222 218 214 217 221
59 53 56 46 36 36 38 43 45 62 71 79 78 79 79 80 77 77 75 78 74 72 72 77 76 89 117 150 162 179 192 195 201 204 208 215 220 224 227 226 223 222 229 236
111 92 44 43 41 43 44 48 57 71 89 101 102 79 77 81 84 82 82 78 72 74 74 77 87 81 86 104 140 164 173 193 191 186 191 194 199 196 195 201 201 212 228 245
132 106 71 49 45 53 56 54 56 63 69 82 93 92 86 90 83 79 78 79 70 70 76 77 74 82 89 99 117 134 141 162 160 167 158 170 177 173 173 179 187 198 206 216
147 136 116 70 48 60 67 65 62 63 67 68 72 78 79 82 85 92 87 82 84 83 82 77 73 81 105 108 103 111 124 133 125 124 125 128 136 137 133 123 121 127 145 157
166 156 151 126 64 66 71 70 69 71 71 70 68 71 81 80 83 84 86 87 89 92 88 83 82 86 94 102 106 104 103 104 108 111 121 123 119 117 114 110 107 101 97 91
180 181 166 151 117 97 95 94 84 83 84 80 76 73 71 73 76 79 81 84 87 88 88 87 90 94 93 94 95 95 95 96 95 96 97 102 104 106 98 89 84 81 79 76
190 192 181 165 146 125 116 112 101 92 89 83 79 77 77 79 79 79 82 85 86 88 88 88 91 90 91 91 91 90 92 92 90 88 86 85 84 83 82 80 74 67 62 56
188 188 180 176 164 142 126 119 116 111 103 96 93 89 86 86 87 88 86 86 87 87 88 88 88 88 89 88 89 89 88 87 88 87 83 80 78 76 74 72 68 65 62 58
Wind_Speed_850mb
27 30 29 33 39 34 27 27 23 27 48 45 34 38 45 53 48 48 27 13 20 24 27 33 39 48 52 54 49 44 41 41 37 31 26 23 24 32 34 34 24 18 14 5
24 31 34 40 40 40 38 37 36 40 57 39 53 58 48 59 52 48 33 20 26 29 31 38 43 44 50 50 47 45 45 39 32 27 23 23 27 32 33 30 21 17 11 5
22 16 18 26 43 47 39 35 32 40 49 45 40 36 39 46 44 52 38 22 30 36 36 39 44 44 44 47 47 46 39 32 27 27 23 26 23 36 37 26 19 14 8 1
7 4 14 12 2 12 27 32 34 40 47 43 44 50 53 54 60 58 28 24 36 37 39 42 44 45 43 45 46 39 29 23 20 22 24 31 34 39 32 23 17 13 8 2
7 13 23 31 5 12 7 20 19 35 45 33 43 44 59 52 52 37 23 27 38 38 42 44 46 46 48 44 37 30 24 20 20 20 29 33 35 31 26 21 19 15 8 3
9 10 9 7 11 14 15 20 26 36 30 33 34 19 25 35 21 14 21 30 39 41 43 46 47 52 48 42 35 28 21 19 21 20 27 29 31 29 25 21 19 14 9 4
19 10 14 5 17 16 9 3 30 15 13 16 18 26 32 30 14 14 22 33 38 44 45 47 51 51 46 40 36 24 18 23 23 22 28 25 26 28 20 16 15 15 11 7
10 11 13 17 20 10 12 46 33 40 20 25 36 48 52 43 18 18 26 36 42 44 46 49 50 49 44 45 31 25 19 24 23 25 29 25 20 19 15 13 14 16 15 11
6 6 13 32 32 66 70 56 63 41 25 28 33 38 33 31 38 19 19 38 42 46 49 50 51 49 47 42 34 27 24 24 28 28 27 21 15 14 10 12 14 16 17 15
6 6 23 35 50 55 10 19 2 12 8 2 6 9 8 12 24 38 19 37 44 49 53 54 51 51 45 39 32 30 27 28 29 27 24 19 15 9 8 9 11 13 17 17
9 15 26 15 46 49 40 46 36 26 31 27 13 9 3 6 19 31 16 37 41 46 53 54 52 48 45 39 34 32 30 27 27 24 20 16 15 12 15 18 14 11 12 16
5 28 15 21 40 47 42 47 43 37 38 34 23 13 10 11 11 9 9 10 28 43 48 51 55 49 46 40 35 36 35 31 26 22 18 14 14 20 22 22 19 17 16 17
12 23 16 30 30 33 35 36 38 47 35 46 41 22 16 20 24 16 9 18 31 32 38 47 53 49 48 43 39 39 34 29 29 24 19 17 19 24 21 21 18 17 16 19
21 12 17 26 26 31 33 34 29 36 47 42 34 32 27 26 26 22 13 14 24 22 31 43 50 53 49 47 41 43 34 26 27 25 23 18 17 23 18 18 13 15 16 17
18 17 16 23 32 33 31 28 28 39 31 44 42 40 36 38 38 26 23 26 28 32 26 29 43 52 55 50 44 43 37 30 30 26 27 22 17 20 20 18 10 13 18 18
13 20 23 32 34 37 31 29 30 37 33 31 37 37 39 48 48 44 37 33 30 27 26 33 39 47 55 54 47 43 38 30 26 26 27 27 24 20 21 19 12 13 17 14
17 22 21 27 27 29 32 27 25 28 25 27 28 27 35 45 53 57 54 46 42 33 25 22 23 33 46 49 48 43 38 33 30 27 25 29 29 27 22 20 17 13 10 8
18 15 18 26 25 29 30 30 22 21 26 23 22 27 36 45 50 46 47 51 46 41 31 22 17 21 32 39 43 42 39 35 32 29 27 25 26 29 27 23 19 17 15 13
14 15 19 28 33 31 32 32 29 20 19 20 22 30 36 40 40 38 40 41 41 43 37 30 22 22 22 28 31 35 32 33 28 28 26 25 23 21 23 25 21 20 20 18
12 14 17 26 36 42 42 41 35 25 21 21 21 24 33 38 36 33 34 39 41 38 31 26 27 24 22 30 34 22 25 30 32 29 25 21 16 14 13 17 19 14 17 22
14 11 14 23 31 37 43 39 32 30 26 23 20 25 29 28 23 25 28 36 37 32 32 27 24 27 24 18 21 33 30 25 28 28 25 22 20 17 14 14 14 17 18 19
18 11 10 15 24 29 34 37 42 42 43 30 23 22 20 21 19 22 25 30 28 26 30 33 33 25 25 22 25 29 32 27 27 28 28 26 22 20 17 16 16 17 19 20
21 14 9 9 18 21 26 35 41 45 52 50 48 42 37 32 27 27 30 30 29 25 28 32 30 24 22 29 34 36 39 40 47 40 26 24 22 21 19 16 13 12 10 9
20 17 14 10 14 16 22 28 35 43 49 53 53 47 36 44 45 41 37 31 31 32 35 32 29 28 31 38 39 40 39 42 43 53 55 44 39 38 37 32 31 30 28 25
21 20 17 19 13 14 17 21 27 33 40 44 46 48 49 49 51 44 41 38 34 35 37 36 34 36 41 45 48 50 48 46 46 43 45 48 47 46 37 34 32 31 30 28
28 23 19 18 15 16 17 19 23 25 28 36 40 41 43 45 50 52 54 56 55 54 50 43 42 45 48 49 50 49 49 49 47 45 43 43 44 45 40 35 31 30 30 29
30 31 31 26 20 17 18 17 18 24 24 27 33 36 39 42 47 48 50 54 57 62 64 63 62 62 63 63 63 64 64 60 58 58 55 54 53 52 49 47 45 44 43 42
Wind_Direction_850mb
260 274 276 275 275 272 259 250 254 261 257 269 288 307 316 315 322 327 322 243 193 178 157 154 151 149 148 147 146 142 138 138 139 137 136 144 149 154 155 154 148 147 154 107
250 258 264 270 267 263 260 258 253 253 263 273 284 288 296 301 306 313 319 235 197 184 168 161 158 155 151 149 148 143 141 145 149 147 145 153 157 162 157 154 149 141 140 112
256 268 280 273 251 246 254 251 243 244 254 260 269 277 284 294 300 301 302 228 193 182 176 167 161 159 157 154 153 153 154 160 165 170 161 161 165 164 157 149 156 167 151 111
276 309 253 275 215 281 265 268 263 237 245 250 253 267 283 287 285 288 274 211 192 180 172 168 163 162 161 161 159 161 165 174 179 170 165 158 150 154 154 154 165 167 188 270
235 226 279 285 39 335 353 286 267 224 238 244 258 281 285 278 275 262 240 198 189 177 169 167 167 167 166 169 166 167 172 180 171 158 160 165 163 167 165 166 176 186 201 236
213 246 262 39 120 12 327 273 226 226 238 242 251 258 271 294 258 241 191 185 176 168 166 169 169 171 173 177 174 177 179 174 162 151 156 162 171 174 170 172 187 198 199 235
231 261 271 66 342 326 248 15 325 309 263 242 235 238 265 310 270 185 186 176 171 166 165 169 171 175 178 180 183 181 180 169 159 151 155 160 165 173 175 189 199 203 207 212
218 236 267 22 330 237 330 311 303 300 269 252 254 262 263 266 230 176 179 168 170 162 166 172 173 175 179 182 181 182 176 159 155 153 163 166 170 180 192 205 210 209 205 199
253 294 297 292 256 263 262 265 280 285 271 261 256 261 262 239 211 179 170 170 166 163 165 170 174 178 181 183 185 188 164 148 155 159 169 172 168 170 187 203 198 199 193 186
301 264 289 301 336 343 51 207 11 53 48 335 265 273 274 219 197 199 185 172 163 173 170 168 172 176 177 183 184 179 163 154 159 168 177 181 182 171 159 172 169 182 187 180
253 278 319 310 347 356 18 50 37 49 45 33 26 8 337 138 147 180 187 161 168 181 182 177 178 180 183 190 189 183 169 160 162 172 182 184 180 159 137 130 124 124 147 169
330 307 307 327 344 360 12 35 26 40 40 38 39 42 44 68 116 139 106 120 186 196 188 188 189 186 187 194 188 185 180 172 172 179 185 183 167 149 137 127 117 111 123 141
284 317 351 354 358 358 7 19 20 36 30 41 37 53 62 77 95 102 162 177 189 200 190 198 192 188 187 187 187 186 187 184 187 191 191 185 168 158 144 134 124 120 118 135
11 11 20 12 355 355 359 16 12 28 48 35 40 60 76 85 105 104 110 132 164 182 194 187 190 191 181 185 183 183 189 192 183 199 198 187 174 168 156 153 140 143 128 138
34 52 42 14 16 13 16 14 30 38 25 34 39 52 67 79 90 91 88 103 137 147 123 150 176 185 183 182 183 187 186 195 193 192 202 187 179 172 173 167 150 158 157 143
50 38 33 23 16 21 25 19 31 42 34 28 42 45 61 78 85 89 93 98 120 124 135 152 167 178 182 184 186 190 192 200 203 207 215 199 191 184 179 180 166 149 163 158
43 22 31 27 24 27 31 34 33 45 37 42 47 60 72 78 81 75 77 83 94 107 128 134 158 167 176 183 190 194 193 196 208 205 211 214 205 199 192 194 192 177 171 164
57 43 55 37 33 33 32 41 40 51 55 43 59 73 79 80 78 78 80 84 84 82 82 90 125 151 173 181 183 198 203 209 208 213 215 217 217 214 212 206 202 200 197 197
47 72 52 39 33 33 36 40 47 59 66 65 79 79 80 86 85 77 81 87 88 89 83 81 93 116 148 175 189 185 196 204 206 217 223 225 226 224 223 222 218 214 217 221
59 53 56 46 36 36 38 43 45 62 71 79 78 79 79 80 77 77 75 78 74 72 72 77 76 89 117 150 162 179 192 195 201 204 208 215 220 224 227 226 223 222 229 236
111 92 44 43 41 43 44 48 57 71 89 101 102 79 77 81 84 82 82 78 72 74 74 77 87 81 86 104 140 164 173 193 191 186 191 194 199 196 195 201 201 212 228 245
132 106 71 49 45 53 56 54 56 63 69 82 93 92 86 90 83 79 78 79 70 70 76 77 74 82 89 99 117 134 141 162 160 167 158 170 177 173 173 179 187 198 206 216
147 136 116 70 48 60 67 65 62 63 67 68 72 78 79 82 85 92 87 82 84 83 82 77 73 81 105 108 103 111 124 133 125 124 125 128 136 137 133 123 121 127 145 157
166 156 151 126 64 66 71 70 69 71 71 70 68 71 81 80 83 84 86 87 89 92 88 83 82 86 94 102 106 104 103 104 108 111 121 123 119 117 114 110 107 101 97 91
180 181 166 151 117 97 95 94 84 83 84 80 76 73 71 73 76 79 81 84 87 88 88 87 90 94 93 94 95 95 95 96 95 96 97 102 104 106 98 89 84 81 79 76
190 192 181 165 146 125 116 112 101 92 89 83 79 77 77 79 79 79 82 85 86 88 88 88 91 90 91 91 91 90 92 92 90 88 86 85 84 83 82 80 74 67 62 56
188 188 180 176 164 142 126 119 116 111 103 96 93 89 86 86 87 88 86 86 87 87 88 88 88 88 89 88 89 89 88 87 88 87 83 80 78 76 74 72 68 65 62 58